Find Starlink 35870

NORAD ID: 66572 Int'l Des: 2025-268 Owner: SPXS Country: US Constellation: starlink operational
LEOCIRCULAR

Current View

Loading 3D Globe...

About Starlink 35870

Description loading...

Upcoming Passes

Passes for default location (London). Set your location on the main map for personalized predictions.

Altitude History

Loading altitude history...

Two-Line Element Set

1 66572U 25268R 26151.32125626 .00029830 00000-0 10884-2 0 9996
2 66572 43.0009 240.7161 0002420 287.7210 72.3378 15.27600195 30593
Epoch: May 31, 2026 • Age: 14 hours

Current Status

Altitude 487.0 km
Velocity 7.63 km/s
Sub-Earth Point 41.60°N, 86.68°E
Launch Date Nov 21, 2025
Age 0.5 years
Type internet

Technical Details

Classification Payload
Mass 575.00 kg
Dry Mass 530.00 kg
Total Mass 575.00 kg
Length 0.30 m
Diameter 4.10 m
Span 29.00 m
Shape Box + pan
Manufacturer SPXS
Bus Type Starlink V2MO
Phase Status In Orbit
Owner/State SPXS/US

Most Searched